Stündliche Wetter Warszew

Heute, 27 Oktober, Dienstag

Zeit Temperatur Niederschläge Wind Luftdruck Luftfeuchtigkeit
00:00 +11°C° 0 mm 3 m/S 741 mmHg 87%
01:00 +10°C° 0 mm 2 m/S 741 mmHg 90%
02:00 +10°C° 0 mm 2 m/S 741 mmHg 90%
03:00 +10°C° 0 mm 2 m/S 742 mmHg 90%
04:00 +10°C° 0 mm 2 m/S 742 mmHg 90%
05:00 +10°C° 0 mm 2 m/S 742 mmHg 90%
06:00 +10°C° 0 mm 2 m/S 743 mmHg 89%
07:00 +10°C° 0 mm 2 m/S 743 mmHg 89%
08:00 +10°C° 0 mm 2 m/S 744 mmHg 86%
09:00 +10°C° 0 mm 2 m/S 744 mmHg 82%
10:00 +12°C° 0 mm 2 m/S 744 mmHg 79%
11:00 +12°C° 0 mm 2 m/S 744 mmHg 78%
12:00 +12°C° 0 mm 1 m/S 744 mmHg 77%
13:00 +12°C° 0 mm 1 m/S 744 mmHg 76%
14:00 +12°C° 0 mm 1 m/S 744 mmHg 78%
15:00 +11°C° 0 mm 1 m/S 744 mmHg 80%
16:00 +11°C° 0 mm 1 m/S 744 mmHg 82%
17:00 +11°C° 0.3 mm 1 m/S 745 mmHg 84%
18:00 +11°C° 0.3 mm 1 m/S 745 mmHg 86%
19:00 +10°C° 0.3 mm 2 m/S 745 mmHg 88%
20:00 +9°C° 0.1 mm 2 m/S 746 mmHg 89%
21:00 +9°C° 0.1 mm 2 m/S 746 mmHg 89%
22:00 +9°C° 0.1 mm 2 m/S 746 mmHg 89%
23:00 +9°C° 0 mm 2 m/S 746 mmHg 89%

Morgen, 28 Oktober, Mittwoch

Zeit Temperatur Niederschläge Wind Luftdruck Luftfeuchtigkeit
00:00 +8°C° 0 mm 2 m/S 746 mmHg 89%
01:00 +8°C° 0 mm 2 m/S 747 mmHg 89%
02:00 +7°C° 0 mm 2 m/S 747 mmHg 89%
03:00 +7°C° 0 mm 2 m/S 747 mmHg 88%
04:00 +7°C° 0 mm 2 m/S 747 mmHg 88%
05:00 +7°C° 0 mm 3 m/S 747 mmHg 87%
06:00 +7°C° 0 mm 3 m/S 747 mmHg 86%
07:00 +5°C° 0 mm 3 m/S 747 mmHg 86%
08:00 +7°C° 0 mm 4 m/S 747 mmHg 80%
09:00 +9°C° 0 mm 5 m/S 747 mmHg 74%
10:00 +10°C° 0 mm 5 m/S 747 mmHg 69%
11:00 +12°C° 0 mm 5 m/S 747 mmHg 64%
12:00 +13°C° 0 mm 5 m/S 747 mmHg 59%
13:00 +13°C° 0 mm 5 m/S 747 mmHg 54%
14:00 +13°C° 0 mm 5 m/S 747 mmHg 56%
15:00 +12°C° 0 mm 4 m/S 747 mmHg 59%
16:00 +12°C° 0 mm 4 m/S 747 mmHg 61%
17:00 +11°C° 0 mm 4 m/S 747 mmHg 64%
18:00 +11°C° 0 mm 4 m/S 747 mmHg 67%
19:00 +10°C° 0 mm 4 m/S 748 mmHg 70%
20:00 +10°C° 0 mm 4 m/S 748 mmHg 73%
21:00 +8°C° 0 mm 4 m/S 748 mmHg 76%
22:00 +8°C° 0 mm 4 m/S 748 mmHg 79%
23:00 +7°C° 0 mm 4 m/S 748 mmHg 81%

übermorgen, 29 Oktober, Donnerstag

Zeit Temperatur Niederschläge Wind Luftdruck Luftfeuchtigkeit
00:00 +8°C° 0 mm 3 m/S 748 mmHg 83%
01:00 +8°C° 0 mm 3 m/S 748 mmHg 85%
02:00 +7°C° 0 mm 3 m/S 748 mmHg 86%
03:00 +7°C° 0 mm 3 m/S 748 mmHg 87%
04:00 +6°C° 0 mm 4 m/S 748 mmHg 89%
05:00 +6°C° 0 mm 4 m/S 748 mmHg 87%
06:00 +7°C° 0 mm 4 m/S 748 mmHg 86%
07:00 +7°C° 0 mm 4 m/S 748 mmHg 84%
08:00 +8°C° 0.1 mm 4 m/S 747 mmHg 81%
09:00 +9°C° 0.1 mm 5 m/S 747 mmHg 77%
10:00 +10°C° 0.1 mm 5 m/S 747 mmHg 74%
11:00 +12°C° 0.1 mm 5 m/S 747 mmHg 71%
12:00 +12°C° 0.1 mm 5 m/S 747 mmHg 68%
13:00 +13°C° 0.1 mm 5 m/S 747 mmHg 64%
14:00 +12°C° 0.4 mm 5 m/S 747 mmHg 69%
15:00 +10°C° 0.4 mm 5 m/S 748 mmHg 74%
16:00 +9°C° 0.4 mm 5 m/S 748 mmHg 79%
17:00 +8°C° 0 mm 5 m/S 748 mmHg 80%
18:00 +8°C° 0 mm 4 m/S 749 mmHg 81%
19:00 +7°C° 0 mm 4 m/S 749 mmHg 82%
20:00 +7°C° 0 mm 4 m/S 750 mmHg 83%
21:00 +6°C° 0 mm 4 m/S 750 mmHg 84%
22:00 +6°C° 0 mm 4 m/S 751 mmHg 85%
23:00 +5°C° 0 mm 4 m/S 751 mmHg 86%

30 Oktober, Freitag

Zeit Temperatur Niederschläge Wind Luftdruck Luftfeuchtigkeit
00:00 +5°C° 0 mm 4 m/S 751 mmHg 87%
01:00 +5°C° 0 mm 5 m/S 752 mmHg 89%
02:00 +5°C° 0 mm 5 m/S 752 mmHg 89%
03:00 +5°C° 0 mm 5 m/S 752 mmHg 90%
04:00 +3°C° 0 mm 5 m/S 752 mmHg 90%
05:00 +3°C° 0 mm 5 m/S 752 mmHg 91%
06:00 +4°C° 0 mm 4 m/S 753 mmHg 92%
07:00 +4°C° 0 mm 4 m/S 753 mmHg 92%
08:00 +5°C° 0 mm 4 m/S 753 mmHg 87%
09:00 +6°C° 0 mm 4 m/S 753 mmHg 81%
10:00 +7°C° 0 mm 4 m/S 753 mmHg 76%
11:00 +7°C° 0 mm 4 m/S 753 mmHg 72%
12:00 +8°C° 0 mm 4 m/S 753 mmHg 68%
13:00 +10°C° 0 mm 4 m/S 753 mmHg 65%
14:00 +9°C° 0 mm 3 m/S 753 mmHg 67%
15:00 +9°C° 0 mm 3 m/S 753 mmHg 70%
16:00 +9°C° 0 mm 2 m/S 753 mmHg 72%
17:00 +9°C° 0.1 mm 2 m/S 753 mmHg 76%
18:00 +8°C° 0.1 mm 2 m/S 753 mmHg 79%
19:00 +8°C° 0.1 mm 2 m/S 753 mmHg 83%
20:00 +8°C° 0.1 mm 2 m/S 753 mmHg 85%
21:00 +8°C° 0.1 mm 2 m/S 754 mmHg 87%
22:00 +8°C° 0.1 mm 2 m/S 754 mmHg 89%
23:00 +8°C° 0 mm 2 m/S 754 mmHg 89%

31 Oktober, Samstag

Zeit Temperatur Niederschläge Wind Luftdruck Luftfeuchtigkeit
00:00 +8°C° 0 mm 2 m/S 754 mmHg 89%
01:00 +9°C° 0 mm 1 m/S 754 mmHg 89%
02:00 +8°C° 0 mm 1 m/S 754 mmHg 91%
03:00 +8°C° 0 mm 1 m/S 754 mmHg 92%
04:00 +8°C° 0 mm 1 m/S 754 mmHg 93%
05:00 +7°C° 0 mm 2 m/S 754 mmHg 93%
06:00 +7°C° 0 mm 2 m/S 754 mmHg 94%
07:00 +7°C° 0 mm 2 m/S 754 mmHg 94%
08:00 +8°C° 0 mm 2 m/S 754 mmHg 90%
09:00 +9°C° 0 mm 2 m/S 754 mmHg 86%
10:00 +10°C° 0 mm 3 m/S 755 mmHg 82%
11:00 +10°C° 0 mm 3 m/S 754 mmHg 80%
12:00 +12°C° 0 mm 2 m/S 754 mmHg 79%
13:00 +12°C° 0 mm 2 m/S 754 mmHg 77%
14:00 +12°C° 0 mm 2 m/S 754 mmHg 78%
15:00 +10°C° 0 mm 2 m/S 754 mmHg 80%
16:00 +10°C° 0 mm 2 m/S 754 mmHg 82%
17:00 +10°C° 0 mm 2 m/S 754 mmHg 80%
18:00 +9°C° 0 mm 2 m/S 754 mmHg 79%
19:00 +9°C° 0 mm 3 m/S 755 mmHg 78%
20:00 +8°C° 0 mm 3 m/S 755 mmHg 79%
21:00 +7°C° 0 mm 3 m/S 755 mmHg 80%
22:00 +7°C° 0 mm 3 m/S 755 mmHg 81%
23:00 +5°C° 0 mm 3 m/S 755 mmHg 82%

1 November, Sonntag

Zeit Temperatur Niederschläge Wind Luftdruck Luftfeuchtigkeit
00:00 +5°C° 0 mm 3 m/S 755 mmHg 83%
01:00 +4°C° 0 mm 3 m/S 755 mmHg 84%
02:00 +4°C° 0 mm 3 m/S 755 mmHg 85%
03:00 +4°C° 0 mm 3 m/S 755 mmHg 86%
04:00 +4°C° 0 mm 3 m/S 755 mmHg 86%
05:00 +3°C° 0 mm 3 m/S 755 mmHg 87%
06:00 +3°C° 0 mm 3 m/S 755 mmHg 87%
07:00 +3°C° 0 mm 3 m/S 755 mmHg 87%
08:00 +4°C° 0 mm 4 m/S 755 mmHg 81%
09:00 +6°C° 0 mm 4 m/S 755 mmHg 74%
10:00 +7°C° 0 mm 5 m/S 755 mmHg 67%
11:00 +8°C° 0 mm 5 m/S 755 mmHg 63%
12:00 +9°C° 0 mm 5 m/S 755 mmHg 59%
13:00 +10°C° 0 mm 5 m/S 755 mmHg 54%
14:00 +10°C° 0 mm 4 m/S 755 mmHg 58%
15:00 +10°C° 0 mm 4 m/S 755 mmHg 62%
16:00 +9°C° 0 mm 3 m/S 754 mmHg 66%
17:00 +8°C° 0 mm 3 m/S 755 mmHg 69%
18:00 +7°C° 0 mm 3 m/S 755 mmHg 72%
19:00 +6°C° 0 mm 4 m/S 755 mmHg 74%
20:00 +5°C° 0 mm 3 m/S 755 mmHg 76%
21:00 +5°C° 0 mm 3 m/S 755 mmHg 78%
22:00 +4°C° 0 mm 3 m/S 755 mmHg 80%
23:00 +4°C° 0 mm 3 m/S 755 mmHg 81%
Mehr zeigen

Wir brauchen deine Erlaubnis

Meteoprog und unser Service Anbieter werden persönliche Daten aufbewahren, so wie Cookies, Geräte Bezeichnung oder ähnliche Technologien von deinem Gerät und Prozess, so wie Persönliche Daten Inhalte und Werbungen, genauso wie social Media und den Verkehr zu analysieren.

  • Aufbewahrung und/oder Zugang zu deiner Geräte Informationen.

    Cookies, Geräte Bezeichnung oder andere Informationen, können aufbewahrt oder Zugang zu deinem Gerät erhalten, für den Grund, der oben angegeben wird.

  • Personalisierte Werbung und Inhalte, Messungen, Einblick in das Publikum und Produkt Entwicklung.

    Werbungen und Inhalte können personalisiert werden, basierend auf ein Profil. Mehr Daten können besser personalisierte Werbungen und Inhalte hinzufügen. Werbung und Inhalte können gezeigt und gemessen werden. Einblicke über das Publikum, welche die Werbung gesehen haben und den Inhalt, können abgeleitet werden. So wie Daten können genutzt werden, um es zu verbessern oder die Benutzer Erfahrung zu verbessern das System und die Software.

Wenn du “Ich stimme zu” klickst, erlaubst du uns, die Cookies zu benutzen die Geräte Bezeichnung, den Web oder ähnliche Technologien zu benutzen. Deine Settings, können in deinem Gerät bei deinem Browser geändert werden.

Für den bestimmten Zweck, berechtigten Interessen beruhen darauf, mehr als auf den Inhalt. Du kannst mehr darüber in unseren Privaten und Cookie Politik lesen.